ZIYUAN 1-02C (ZY 1-02C) (38038 NORAD) Tracking and Keplerian Element Data

This shows tracking and keplerian element data for the satellite.

Feedback or suggestion? Click here.




ElementValue
Catalog38038
NameZIYUAN 1-02C (ZY 1-02C)
Epoch Orbit68771
Epoch Day35.33641373
Epoch Year2025
RAAN106.5476
Inclination98.4698
Eccentricity0.0006414
Argument of Perigee5.8953
Mean Anonmoly82.2017
Mean Motion14.37524847
Decay Rate1.068E-05
L11 38038U 11079A 25035.33641373 .00001068 00000+0 37085-3 0 9995
L22 38038 98.4698 106.5476 0006414 5.8953 82.2017 14.37524847687716



Live tracking and technical data element details for ZIYUAN 1-02C (ZY 1-02C) (NORAD 38038). ZIYUAN 1-02C (ZY 1-02C) can be tracked NOW for your location showing map with azimuth and elevation plus other details from your city location.







IsCatalogInMostPopularTable: catalog: 38038, numindb: 345
Update: records affected: 1



GetName: 38038 ZIYUAN 1-02C (ZY 1-02C)

Hit Count: updated at: Sat, 24 May 2025 16:44:35 GMT